Regional Weather Roundup
Issued by NWS Midland/Odessa, TX

Skip options and go directly to product.
Home | Oldest Version | Previous Version | Current Version | All | Text Only | Save Text | Print | Product List | Glossary On

Skip product version selection by date and time.   
609
ASUS44 KMAF 200610
RWRMAF
MIDLAND AREA WEATHER ROUNDUP
NATIONAL WEATHER SERVICE MIDLAND TX
100 AM CDT SAT SEP 20 2014

...IN SOUTHWEST TEXAS AND SOUTHEAST NEW MEXICO...

CITY           SKY/WX    TMP DP  RH WIND       PRES   REMARKS
ALPINE         MOCLDY    70  65  85 S5        30.11F
ANDREWS        CLOUDY    70  68  95 SE9       30.01F
ARTESIA        NOT AVBL
BIG SPRING     CLOUDY    74  69  85 E6        30.02S
CARLSBAD       CLOUDY    71  32  23 E7        29.99S HAZE
DRYDEN           N/A     82  70  66 E6        29.92F
FORT STOCKTON  CLOUDY    71  69  93 SE8       29.98F
GUAD PASS      FOG       64  64 100 E14         N/A  VSB 1/4
HOBBS          CLOUDY    68  68 100 SE7       30.04F
MARFA          PTCLDY    64  61  88 NW3       30.11F
MIDLAND AIRPK  NOT AVBL
MIDLAND INTL   CLOUDY    72  70  93 SE12      29.99S
ODESSA         LGT RAIN  71  69  93 SE10      30.00S
PECOS          CLOUDY    71  67  89 CALM      29.95F
PRESIDIO       MOCLDY    77  64  64 N9        29.95S
SEMINOLE       CLOUDY    69  69  98 SE5       30.04S
SNYDER         DRIZZLE   71  68  90 SE8       30.02S
WINK           LGT RAIN  73  69  87 E7        29.97S
$$
...OTHER STATIONS IN TEXAS...

CITY           SKY/WX    TMP DP  RH WIND       PRES   REMARKS
ABILENE        MOCLDY    73  70  90 SE5       29.98F
AMARILLO       CLEAR     65  63  93 S9        30.05S
AUSTIN         MOCLDY    77  75  93 S7        29.93S
BROWNSVILLE    CLOUDY    82  79  90 E3        29.85F
CORPUS CHRISTI PTCLDY    80  76  87 SE7       29.88S
DALLAS FTW     MOCLDY    78  70  76 SE7       29.95S
DEL RIO        CLOUDY    81  71  71 E10       29.90S
EL PASO        PTCLDY    73  65  75 CALM      30.00S
HOUSTON INT    PTCLDY    73  72  96 NE3       29.92F
LUBBOCK        LGT RAIN  68  67  96 SE7       30.03F FOG
SAN ANGELO     CLOUDY    73  70  90 E6        29.97S
SAN ANTONIO    CLOUDY    77  73  87 SE12      29.93F
WACO           PTCLDY    74  71  91 SE5       29.95S
WICHITA FALLS  NOT AVBL
$$
...OTHER LOCATIONS IN NEW MEXICO...

CITY           SKY/WX    TMP DP  RH WIND       PRES   REMARKS
ALAMAGORDO     PTCLDY    66  64  94 NE7       30.04S
ALBUQUERQUE    CLEAR     69  56  62 SW5       30.10R
CANNON AFB     CLOUDY    66 N/A N/A S8        30.09F
CLOVIS           N/A     64  63  94 S7        30.11S
HOLLOMAN AFB   PTCLDY    68  65  90 CALM      30.02R
ROSWELL        LGT RAIN  68  66  93 E5        30.03F
RUIDOSO        CLOUDY    59  59 100 CALM      30.22F
SANTA FE       CLEAR     64  55  72 SE8       30.17R
TRUTH OR CONSE CLEAR     69  64  84 CALM      30.06R
TUCUMCARI      CLEAR     67  61  81 SW9       30.05S
$$

USA.gov is the U.S. government's official web portal to all federal, state and local government web resources and services.